Regional Weather Roundup
Issued by NWS

Home | Current Version | Previous Version | Graphics & Text | Print | Product List | Glossary On
Versions: 1 2 3 4 5 6 7 8 9 10 11 12 13 14 15 16 17 18 19 20 21 22 23 24 25 26 27 28 29 30 31 32 33 34 35 36 37 38 39 40 41 42 43 44 45 46 47 48 49 50
000
ASUS43 KDMX 061103
RWRIA

WEATHER ROUNDUP FOR IOWA
NATIONAL WEATHER SERVICE DES MOINES IA
500 AM CST SAT FEB 06 2016

NOTE: "FAIR" INDICATES FEW OR NO CLOUDS BELOW 12,000 FEET WITH NO
SIGNIFICANT WEATHER AND/OR OBSTRUCTIONS TO VISIBILITY.

* - THESE STATIONS ARE NOT NWS STATIONS...THUS NOT UNDER NWS
QUALITY CONTROL.  THEY ALSO DO NOT REPORT WEATHER SUCH
AS PRECIPITATION OR FOG.

IAZ001>003-012>014-020>022-031>034-043>046-061200-
   NORTHWEST IOWA

CITY           SKY/WX    TMP DP  RH WIND       PRES   REMARKS
CARROLL *      CLOUDY    28  28 100 W12       30.22R FOG     WCI  18
CHEROKEE *     FOG       25  25 100 SW7       30.21F VSB 1/4 WCI  17
DENISON *      CLOUDY    28  27  93 W6        30.20F FOG     WCI  22
LE MARS *      FOG       21  21 100 S7        30.21F VSB 0   WCI  13
ORANGE CITY *  FOG       19  19 100 CALM      30.17F VSB 0
SHELDON *      FOG       21  23 100 S8        30.16F VSB 0   WCI  12
SIOUX CITY     FOG       17  13  84 CALM      30.22F VSB 1/4
SPENCER        FOG       25  22  88 SW8       30.18F VSB 1/4 WCI  16
STORM LAKE *   FOG       25  25 100 W10       30.20S VSB 0   WCI  15
$$

IAZ055>058-069>071-079>083-090>094-061200-
   SOUTHWEST IOWA

CITY           SKY/WX    TMP DP  RH WIND       PRES   REMARKS
ATLANTIC *     FOG       28  28 100 W5        30.24S VSB 1   WCI  23
AUDUBON *      CLOUDY    28  27  93 CALM      30.23S FOG
CLARINDA *     CLOUDY    30  30 100 NW6       30.27S WCI  24
COUNCIL BLFS * CLOUDY    30  30 100 NW7       30.24S WCI  23
CRESTON *      CLOUDY    28  28 100 W6        30.23F FOG     WCI  22
HARLAN  *      CLOUDY    28  28 100 NW8       30.26F FOG     WCI  20
LAMONI         CLEAR     25  21  85 W6        30.22F WCI  18
RED OAK *      CLOUDY    30  30 100 NW5       30.25F WCI  25
SHENANDOAH *   CLOUDY    32  32 100 N5        30.26F WCI  27
$$

IAZ047>049-059>061-072>074-084-061200-
   CENTRAL IOWA

CITY           SKY/WX    TMP DP  RH WIND       PRES   REMARKS
AMES           CLOUDY    31  28  89 W7        30.22S WCI  24
ANKENY *       CLOUDY    30  30 100 CALM      30.23F
BOONE *        CLOUDY    30  28  93 W8G14     30.21R FOG     WCI  23
CHARITON *     PTCLDY    23  21  93 W3        30.23S
DES MOINES     CLOUDY    30  26  85 SW3       30.23F
GRINNELL*      CLOUDY    29  26  87 SW7       30.23S WCI  22
KNOXVILLE *    PTCLDY    25  21  86 CALM      30.22S
MARSHALLTOWN   CLOUDY    29  27  92 W7        30.22R WCI  22
NEWTON *       CLOUDY    28  28 100 SW6       30.23S WCI  22
PELLA *        PTCLDY    27  23  86 CALM      30.26R
$$

IAZ004>006-015-016-023>025-035-036-061200-
   NORTH CENTRAL IOWA

CITY           SKY/WX    TMP DP  RH WIND       PRES   REMARKS
ALGONA *       CLOUDY    27  27 100 W10       30.19S FOG     WCI  17
CLARION *      CLOUDY    28  27  93 W9        30.20S WCI  20
ESTHERVILLE    FOG       23  23 100 SW9       30.16F VSB 1/4 WCI  13
FORT DODGE *   CLOUDY    28  25  86 W7        30.22R WCI  21
MASON CITY     CLOUDY    27  25  92 W7        30.20S FOG     WCI  19
FOREST CITY *  CLOUDY    27  27 100 W6        30.19S FOG     WCI  20
WEBSTER CITY * CLOUDY    28  28 100 W12       30.19S FOG     WCI  18
IOWA FALLS *   CLOUDY    30  29  94 W9        30.21S FOG     WCI  22
$$

IAZ007>011-017>019-026>030-037>042-050>054-066-061200-
   NORTHEAST IOWA

CITY           SKY/WX    TMP DP  RH WIND       PRES   REMARKS
CEDAR RAPIDS   CLOUDY    28  25  88 S3        30.23S
CHARLES CITY * CLOUDY    28  28 100 SW8       30.20S FOG     WCI  20
CLINTON *      CLOUDY    25  24  96 S3        30.26F
DECORAH *      CLOUDY    27  27 100 SW8       30.18S FOG     WCI  18
DUBUQUE        CLOUDY    26  22  84 S7        30.21F WCI  18
MONTICELLO *   CLOUDY    28  23  80 SW7       30.23S WCI  21
OELWEIN *      CLOUDY    28  28 100 SW9       30.21S WCI  20
WATERLOO       CLOUDY    29  26  89 SW10      30.21F WCI  20
$$

IAZ064-065-067-068-078-061200-
   EAST CENTRAL IOWA

CITY           SKY/WX    TMP DP  RH WIND       PRES   REMARKS
DAVENPORT      CLOUDY    29  22  75 SW7       30.26S WCI  22
IOWA CITY      CLOUDY    28  23  81 CALM      30.27S
MT. PLEASANT * CLEAR     28  25  86 S3        30.26S
MUSCATINE *    CLOUDY    30  25  80 S3        30.28S
QUAD CITIES    CLOUDY    30  22  72 SW3       30.27R
$$

IAZ062-063-075>077-085>089-095>099-061200-
   SOUTHEAST IOWA

CITY           SKY/WX    TMP DP  RH WIND       PRES   REMARKS
BURLINGTON     CLEAR     26  23  88 S5        30.26S WCI  20
FAIRFIELD *    CLEAR     27  19  74 S5        30.25R WCI  21
FORT MADISON * CLEAR     27  21  80 S6        30.27S WCI  20
KEOKUK *       CLEAR     27  21  80 CALM      30.26S
OSKALOOSA *      N/A     25  21  86 CALM      30.25R
OTTUMWA        CLEAR     24  20  84 SW3       30.24S
WASHINGTON *   MOCLDY    25  23  93 CALM      30.27S
$$

ABBREVIATIONS USED IN REMARKS
   TC - TEMPERATURES IN CELSIUS
  WCI - WIND CHILL INDEX
   HX - HEAT INDEX
  VSB - VISIBILITY
$$




USA.gov is the U.S. government's official web portal to all federal, state and local government web resources and services.